This is the latest recevied weather packets stored in our database for station/object OE3XOC-11. If no packets are shown the sender has not sent any weather packets the latest 10 day(s).
| Time | Temp. | Humidity | Pressure | Rain* | Wind** | Luminosity | Snow |
|---|---|---|---|---|---|---|---|
| 1777814841 | 25° C | 27% | 960.1 hPa | - | - | - | - |
| 1777814541 | 25° C | 27% | 960.1 hPa | - | - | - | - |
| 1777814241 | 25° C | 28% | 960.2 hPa | - | - | - | - |
| 1777813941 | 25° C | 27% | 960.3 hPa | - | - | - | - |
| 1777813641 | 25° C | 28% | 960.4 hPa | - | - | - | - |
| 1777813341 | 25° C | 28% | 960.6 hPa | - | - | - | - |
| 1777813041 | 24.44° C | 27% | 960.6 hPa | - | - | - | - |
| 1777812741 | 25° C | 27% | 960.5 hPa | - | - | - | - |
| 1777812441 | 24.44° C | 28% | 960.8 hPa | - | - | - | - |
| 1777812141 | 24.44° C | 28% | 960.7 hPa | - | - | - | - |
| 1777811841 | 25° C | 28% | 960.9 hPa | - | - | - | - |
| 1777811541 | 25° C | 28% | 961 hPa | - | - | - | - |
| 1777811241 | 25° C | 29% | 961 hPa | - | - | - | - |
| 1777810941 | 25° C | 29% | 961.1 hPa | - | - | - | - |
| 1777810641 | 23.89° C | 29% | 961 hPa | - | - | - | - |
| 1777810341 | 24.44° C | 29% | 961 hPa | - | - | - | - |
| 1777810041 | 24.44° C | 29% | 961.1 hPa | - | - | - | - |
| 1777809741 | 23.89° C | 30% | 961.2 hPa | - | - | - | - |
| 1777809441 | 24.44° C | 30% | 961.3 hPa | - | - | - | - |
| 1777809141 | 25° C | 29% | 961.4 hPa | - | - | - | - |
| 1777808841 | 23.89° C | 30% | 961.4 hPa | - | - | - | - |
| 1777808541 | 23.89° C | 31% | 961.4 hPa | - | - | - | - |
| 1777808241 | 23.89° C | 31% | 961.4 hPa | - | - | - | - |
| 1777807941 | 23.33° C | 31% | 961.4 hPa | - | - | - | - |
| 1777807641 | 23.89° C | 31% | 961.6 hPa | - | - | - | - |
* Rain since midnight (hover to see other rain measurements)
** Current wind speed in m/s (hover to see current wind gust speed)